Hourly Data Report for October 20, 2013

All times are specified in Local Standard Time (LST). Add 1 hour to adjust for Daylight Saving Time where and when it is observed.

ARVIAT A
NUNAVUT

61°05'38.000" N
94°04'18.000" W
10.40 m
2300427
71174
YEK

Download Data

Hourly Data (October 2013)
Hourly Data Report for October 20, 2013
Temp Definition
°C
Dew Point Temp Definition
°C
Rel Hum Definition
%
Wind Dir Definition
10's deg

Wind Spd Definition
km/h
Visibility Definition
km
Stn Press Definition
kPa
Hmdx Definition


Wind Chill Definition


Weather Definition


TIME
00:00 Legend Double Dagger -8.0 -8.3 98 33 18 16.1 101.16   -15 LegendNANA
01:00 Legend Double Dagger -7.4 -7.7 98 32 17 16.1 101.19   -14 LegendNANA
02:00 Legend Double Dagger -8.0 -8.5 96 31 13 16.1 101.21   -14 LegendNANA
03:00 Legend Double Dagger -9.3 -10.0 95 31 13 16.1 101.24   -15 LegendNANA
04:00 Legend Double Dagger -10.1 -10.7 96 33 11 16.1 101.27   -16 LegendNANA
05:00 Legend Double Dagger -10.5 -11.0 96 34 13 16.1 101.28   -17 LegendNANA
06:00 Legend Double Dagger -11.0 -11.7 95 33 13 16.1 101.32   -17 LegendNANA
07:00 Legend Double Dagger -10.0 -10.5 96 34 11 16.1 101.35   -16 LegendNANA
08:00 Legend Double Dagger -9.6 -10.1 96 33 13 16.1 101.35   -16 LegendNANA
09:00 Legend Double Dagger -6.5 -6.6 99 1 9 16.1 101.42   -11 LegendNANA
10:00 Legend Double Dagger -5.2 -5.3 99 35 13 16.1 101.44   -10 LegendNANA
11:00 Legend Double Dagger -4.3 -4.3 100 35 13 12.9 101.47   -9 LegendNANA
12:00 Legend Double Dagger -3.8 -3.8 100 34 15 16.1 101.49   -9 LegendNANA
13:00 Legend Double Dagger -3.7 -3.8 99 33 15 9.7 101.52   -9 LegendNANA
14:00 Legend Double Dagger -3.2 -3.2 100 33 18 4.8 101.52   -9 LegendNANA
15:00 Legend Double Dagger -2.8 -2.8 100 34 21 11.3 101.53   -9 LegendNANA
16:00 Legend Double Dagger -2.2 -2.2 100 34 17 14.5 101.54   -8 LegendNANA
17:00 Legend Double Dagger -0.3 -0.6 98 6 24 16.1 101.56   -6 LegendNANA
18:00 Legend Double Dagger -0.4 -1.1 95 6 24 16.1 101.59   -6 LegendNANA
19:00 Legend Double Dagger -0.2 -1.2 93 4 22 16.1 101.63   -6 LegendNANA
20:00 Legend Double Dagger -0.4 -1.8 90 6 18 16.1 101.65   -5 LegendNANA
21:00 Legend Double Dagger -0.7 -1.4 95 6 17 4.8 101.66   -6 LegendNANA
22:00 Legend Double Dagger -0.5 -1.5 93 4 17 14.5 101.64   -5 LegendNANA
23:00 Legend Double Dagger -0.7 -1.7 93 4 15 3.6 101.62   -5 LegendNANA

Notes on Data Quality.

Legend

  • E = Estimated
  • M = Missing
  • NA = Not Available
  • ‡ = Partner data that is not subject to review by the National Climate Archives
Date modified: